Location: Melbourne
(37.8170°S, 144.9670°E)
Time: 00:13:03
(UTC+11:00)

Daily predictions for brighter satellites

Satellite Brightness Start Highest point End
(mag) Time Altitude Azimuth Time Altitude Azimuth Time Altitude Azimuth
Cosmos 2369 Rocket 4.5 01:31:04 10° S 01:33:06 20° S 01:33:06 20° S
CZ-2D R/B 4.4 01:53:38 21° SSE 01:53:38 21° SSE 01:55:58 10° S
Cosmos 1943 Rocket 4.2 02:40:32 10° SSW 02:42:14 20° SSW 02:42:14 20° SSW
ATLAS 5 CENTAUR R/B 4.2 02:52:25 25° E 02:52:25 25° E 02:56:45 10° ESE
USA 234 3.6 02:54:14 10° SE 02:59:47 60° S 02:59:47 60° S
Gbstr 26 Del rocket 4.4 03:09:29 78° SSE 03:09:29 78° SSE 03:16:29 10° SE
Cosmos 2315 Rocket 4.4 03:08:14 10° S 03:13:57 60° SE 03:13:57 60° SE
Resurs 1-4 Rocket 4.2 03:18:20 18° SSW 03:18:20 18° SSW 03:19:43 10° SSW
Milstar 3 Cent rocket 4.0 03:28:36 49° N 03:29:48 50° NNE 03:47:17 10° E
Cosmos 1238 Rocket 4.1 03:24:18 10° S 03:30:55 77° ESE 03:30:55 77° ESE
CZ-2D R/B 4.2 03:34:57 17° SW 03:34:57 17° SW 03:36:19 10° SSW
Lacrosse 4 Rocket 3.8 03:33:27 18° E 03:33:27 18° E 03:35:24 10° ESE
Nadezhda 2 Rocket 4.5 03:46:57 68° SW 03:46:57 68° SW 03:52:39 10° S
Cosmos 304 Rocket 4.5 03:50:42 50° S 03:50:42 50° S 03:54:19 10° SSE
Okean O Rocket 3.7 03:48:47 10° NE 03:52:32 27° ESE 03:56:19 10° SSE
ADEOS II 2.4 03:52:39 54° ENE 03:53:36 65° ESE 03:58:53 10° S
SL-27 R/B 3.6 04:20:32 39° SSE 04:20:32 39° SSE 04:22:49 10° SSE
SL-08 R/B 4.4 04:18:54 49° NNW 04:20:46 77° W 04:27:12 10° S
Cosmos 2082 Rocket 4.1 04:16:21 10° NNE 04:20:54 25° ENE 04:25:28 10° SE
SJ 16-02 2.7 04:22:05 10° S 04:26:21 40° ESE 04:30:32 10° NE
Cosmos 1340 Rocket 3.0 04:24:58 10° S 04:28:58 70° E 04:29:56 48° NNE
DELTA 2 R/B (1) 4.0 04:28:42 42° N 04:29:48 47° NNE 04:35:11 10° E
Cosmos 389 Rocket 3.4 04:35:10 40° SSW 04:35:10 40° SSW 04:37:51 10° S
Cosmos 2084 Rocket 3.6 04:30:47 10° SW 04:35:43 82° WNW 04:40:31 10° NNE
PAYLOAD B 4.2 04:30:12 10° NNE 04:35:47 84° ESE 04:41:29 10° SSW
ATLAS 5 CENTAUR R/B 2.7 04:33:59 42° WNW 04:36:05 60° SW 04:42:20 10° SSE
SL-16 R/B 2.5 04:30:44 10° SSE 04:37:01 89° WSW 04:40:38 27° NNW
OAO 3 Rocket 4.1 04:40:32 31° N 04:40:32 31° N 04:43:48 10° NE
Cosmos 1745 Rocket 3.9 04:38:53 36° NNW 04:41:27 65° W 04:47:37 10° S
SEDSat Delta rocket 4.3 04:39:40 38° NW 04:41:39 49° N 04:48:02 10° ENE
Tiangong 1 2.7 04:42:00 25° SSE 04:42:00 25° SSE 04:44:02 10° ESE
Cosmos 1386 Rocket 4.4 04:39:07 27° NNW 04:42:42 81° W 04:49:01 10° S
PSLV R/B 3.9 04:43:17 57° W 04:43:17 57° W 04:47:13 10° SSW
CZ-4B DEB 4.1 04:42:18 10° NNE 04:47:52 81° WNW 04:53:32 10° SSW
Cosmos 1726 Rocket 3.7 04:46:11 23° N 04:48:56 76° E 04:53:27 10° S
COSMOS 2406 4.1 04:47:48 29° W 04:48:59 31° WSW 04:54:02 10° S
Cosmos 1707 3.3 04:45:41 10° S 04:49:36 60° E 04:53:28 10° NNE
Atlas Centaur 2 4.0 04:47:26 21° NNW 04:51:12 30° NNE 04:57:23 10° ENE
Cosmos 1833 Rocket 3.5 04:47:31 11° N 04:52:38 49° ENE 04:58:06 10° SSE
Cosmos 1271 Rocket 3.9 04:53:23 28° WSW 04:53:23 28° WSW 04:56:10 10° SSW
Abrixas rocket 4.2 04:52:16 18° NNE 04:53:06 19° NE 04:55:31 10° E
SL-08 R/B 4.1 04:49:06 10° S 04:53:38 36° WSW 04:54:37 33° W
Cosmos 2058 Rocket 3.4 04:53:56 12° N 04:58:01 67° E 05:02:28 10° SSE
NOSS 2-3 (D) 4.1 04:53:01 10° SW 04:59:15 65° WNW 05:04:16 10° NNE
Nadezhda 1 Rocket 4.1 04:53:51 10° SSW 05:00:04 58° W 05:06:18 10° N
Uosat 12 SS-18 rocket 4.3 04:55:55 10° SW 05:00:05 39° WNW 05:03:58 10° N
Meteor PRIRODA 3.6 04:59:33 10° NNE 05:03:19 86° ESE 05:07:07 10° S
Cosmos 1356 Rocket 3.8 04:59:49 10° S 05:03:56 65° E 05:08:03 10° NNE
CZ-4B R/B 3.5 05:05:51 33° W 05:05:57 33° W 05:09:41 10° SSW
Lacrosse 5 rocket 1.6 05:04:32 27° NNW 05:06:16 54° NE 05:10:02 10° SE
Cosmos 1758 Rocket 3.4 05:01:56 10° S 05:06:22 75° W 05:10:46 10° N
Genesis I 3.6 05:04:19 22° NNW 05:06:39 60° ENE 05:10:34 10° SE
CZ-4B R/B 3.3 05:01:06 10° N 05:06:42 61° WNW 05:12:23 10° SSW
Lacrosse 4 Rocket 2.4 05:09:48 26° W 05:10:50 30° WSW 05:14:32 10° S
Cosmos 1378 3.0 05:09:14 10° SSW 05:13:03 69° W 05:16:49 10° N
PSLV R/B 4.4 05:12:12 27° WNW 05:13:12 30° W 05:17:07 10° SW
Meteor 1-31 Rocket 2.7 05:12:39 10° N 05:16:32 75° WNW 05:20:29 10° SSW
BREEZE-M DEB (TANK) 2.7 05:11:08 10° SW 05:16:57 83° SE 05:19:25 10° NE
Meteor 2-5 Rocket 3.8 05:14:45 10° S 05:20:43 82° W 05:26:40 10° N
ATLAS 2AS CENTAUR R/B 2.5 05:16:17 10° SW 05:22:35 82° WNW 05:29:24 10° NNE
Cosmos 292 Rocket 4.4 05:24:24 20° NW 05:27:15 38° WSW 05:31:46 10° S
Cosmos 2228 3.1 05:23:39 10° NNW 05:27:59 58° W 05:32:25 10° S
Cosmos 2285 Rocket 4.3 05:22:32 10° N 05:28:47 70° ENE 05:35:08 10° SSE
Okean O Rocket 2.6 05:25:59 15° NW 05:28:47 26° W 05:32:37 10° SW
Cosmos 372 Rocket 4.5 05:24:34 10° SW 05:29:15 36° W 05:33:54 10° NNW
Cosmos 1125 Rocket 4.2 05:26:43 10° SW 05:31:18 31° W 05:35:51 10° NNW
MOZ.5/SAFIR/RUBIN 5/SL-8 4.3 05:26:46 10° S 05:31:21 43° WSW 05:35:39 11° NW
ADEOS II 3.7 05:33:35 14° W 05:33:44 14° W 05:36:27 10° WSW
ISS -1.2 05:34:19 10° SSW 05:36:56 21° SSE 05:39:32 10° ESE
Feng Yun 1-1 Rocket 4.4 05:31:25 10° NNE 05:37:21 81° WNW 05:43:23 10° SSW
Cosmos 1818 3.5 05:32:55 10° SSW 05:38:21 77° WNW 05:43:43 10° NNE
Cosmos 1953 4.4 05:35:28 10° NNE 05:38:59 30° E 05:42:32 10° SSE
Okean-O 2.6 05:34:36 10° NNE 05:39:04 89° WNW 05:43:36 10° SSW
BREEZE-M DEB (TANK) 1.9 05:37:23 10° WSW 05:39:54 60° SSE 05:41:40 10° ENE
CZ-2C R/B 4.2 05:35:22 10° NE 05:40:12 39° ESE 05:45:03 10° S
Cosmos 1867 3.6 05:35:15 12° NW 05:40:19 64° WSW 05:45:43 10° SSE
CZ-4B R/B 4.5 05:36:10 10° N 05:40:21 41° W 05:44:26 10° SSW
Cosmos 1709 Rocket 4.4 05:37:30 10° NNW 05:43:17 43° WSW 05:49:13 10° S
Cosmos 2074 Rocket 4.2 05:39:55 10° N 05:46:14 82° E 05:52:36 10° S
Cosmos 1812 Rocket 4.0 05:42:53 10° N 05:47:12 67° E 05:51:38 10° SSE
IDEFIX/ARIANE 42P 3.2 05:43:49 10° NNE 05:48:57 62° ESE 05:54:08 10° S
Orbus 7S? 4.5 05:51:11 10° W 05:54:14 22° SW 05:56:35 10° S
Cosmos 1805 3.2 05:51:57 10° N 05:55:54 82° W 05:59:55 10° S
USA 161 1.1 05:54:08 10° S 05:56:38 84° W 05:59:17 10° NNW
Cosmos 1697 Rocket 2.7 05:51:28 10° SSW 05:57:10 84° WNW 06:02:49 10° NNE
Cosmos 1766 3.8 05:54:41 10° NNW 05:58:31 41° W 06:02:25 10° S
COSMOS 2487 3.3 05:56:45 10° NW 06:00:00 32° WSW 06:03:16 10° S
USA 102 3.7 05:56:20 10° SSE 06:00:10 70° ENE 06:02:39 10° NNW
In-Cosmos 22 4.1 05:54:58 10° SSW 06:00:18 68° W 06:05:40 10° N
Timation 2 Rocket 4.4 05:55:47 10° NNW 06:02:13 72° ENE 06:08:27 10° SSE
Cosmos 1656 3.9 05:57:34 10° SSW 06:02:57 49° WNW 06:08:21 10° N
GPS 2-05 Rocket1 4.1 06:00:37 10° WNW 06:03:17 23° NNW 06:05:52 10° NNE
SJ 16-02 2.9 06:01:47 10° WSW 06:04:33 16° W 06:07:18 10° NW
Cosmos 2082 Rocket 2.7 05:59:22 10° NW 06:04:42 41° WSW 06:10:03 10° S
Cosmos 773 Rocket 4.2 06:02:12 10° NNW 06:07:18 55° WSW 06:12:31 10° S
